Вернуться в каталог

THORAD AGENA D DEB

АктивенLEO
NORAD 4990·DEBRIS·🇺🇸 United States

Запущен Apr 8, 1970 с Vandenberg Space Force Base

Loading…

Ближайшие Пролёты (ближайшие 24 часа)

TLE

СвежийSource: Space-Track

Эпоха: Sep 14, 2026, 09:34 UTC

1 04990U 70025HL  26257.39906572  .00001206  00000-0  77037-3 0  9995
2 04990 100.0163  50.1783 0052059 188.0425 171.9910 14.05168954832978

Отслеживайте THORAD AGENA D DEB в реальном времени с AllMySat

Download on the App Store